When you browse on this site, cookies collect data to enhance your experience and personalize the content and advertising you see.
Visit our Privacy Policy to learn more. By continuing to use the site, you agree to this use of cookies and data.
  • In Hungary
  • List of Countries
  • For 7 days
  • Water Temperature
  • Satellite Maps
  • Weather Map
  • News
  • Weather Widgets
  • user-avatar
    Login

    Hourly Weather Acquaviva delle Fonti

    Today, 10 December, Monday

    Time Temperature Precipitation Wind Pressure Humidity
    00:00 +10°C° 0.1 mm 6 mps 729 mmHg 70%
    01:00 +10°C° 0 mm 7 mps 729 mmHg 66%
    02:00 +10°C° 0.1 mm 7 mps 729 mmHg 67%
    03:00 +10°C° 0.1 mm 7 mps 729 mmHg 68%
    04:00 +10°C° 0.1 mm 8 mps 729 mmHg 69%
    05:00 +9°C° 0.1 mm 7 mps 729 mmHg 69%
    06:00 +9°C° 0.1 mm 7 mps 729 mmHg 69%
    07:00 +9°C° 0.1 mm 7 mps 730 mmHg 69%
    08:00 +10°C° 0.2 mm 7 mps 730 mmHg 64%
    09:00 +11°C° 0.2 mm 7 mps 731 mmHg 58%
    10:00 +12°C° 0.2 mm 8 mps 731 mmHg 52%
    11:00 +12°C° 0.2 mm 7 mps 731 mmHg 52%
    12:00 +12°C° 0.2 mm 7 mps 731 mmHg 51%
    13:00 +14°C° 0.2 mm 6 mps 731 mmHg 50%
    14:00 +13°C° 0.3 mm 6 mps 731 mmHg 53%
    15:00 +11°C° 0.3 mm 6 mps 732 mmHg 55%
    16:00 +12°C° 0.3 mm 5 mps 732 mmHg 58%
    17:00 +10°C° 0.5 mm 6 mps 732 mmHg 59%
    18:00 +10°C° 0.5 mm 6 mps 732 mmHg 59%
    19:00 +9°C° 0.5 mm 6 mps 732 mmHg 60%
    20:00 +9°C° 0.3 mm 6 mps 733 mmHg 58%
    21:00 +9°C° 0.3 mm 6 mps 733 mmHg 57%
    22:00 +9°C° 0.3 mm 6 mps 733 mmHg 55%
    23:00 +8°C° 0.1 mm 6 mps 734 mmHg 57%

    Tomorrow, 11 December, Tuesday

    Time Temperature Precipitation Wind Pressure Humidity
    00:00 +8°C° 0.1 mm 6 mps 734 mmHg 58%
    01:00 +8°C° 0.1 mm 5 mps 734 mmHg 59%
    02:00 +7°C° 0.2 mm 5 mps 734 mmHg 61%
    03:00 +7°C° 0.2 mm 5 mps 734 mmHg 63%
    04:00 +7°C° 0.2 mm 5 mps 734 mmHg 66%
    05:00 +6°C° 0 mm 5 mps 734 mmHg 65%
    06:00 +6°C° 0 mm 5 mps 735 mmHg 65%
    07:00 +6°C° 0 mm 5 mps 735 mmHg 65%
    08:00 +7°C° 0 mm 5 mps 735 mmHg 58%
    09:00 +8°C° 0 mm 5 mps 735 mmHg 52%
    10:00 +9°C° 0 mm 5 mps 736 mmHg 46%
    11:00 +10°C° 0 mm 4 mps 736 mmHg 42%
    12:00 +11°C° 0 mm 4 mps 736 mmHg 37%
    13:00 +11°C° 0 mm 3 mps 735 mmHg 33%
    14:00 +11°C° 0.1 mm 3 mps 736 mmHg 34%
    15:00 +10°C° 0.1 mm 4 mps 736 mmHg 35%
    16:00 +10°C° 0.1 mm 4 mps 736 mmHg 36%
    17:00 +8°C° 0 mm 4 mps 736 mmHg 41%
    18:00 +7°C° 0 mm 5 mps 736 mmHg 46%
    19:00 +7°C° 0 mm 5 mps 736 mmHg 51%
    20:00 +6°C° 0 mm 5 mps 737 mmHg 56%
    21:00 +6°C° 0 mm 4 mps 737 mmHg 60%
    22:00 +6°C° 0 mm 4 mps 737 mmHg 65%
    23:00 +5°C° 0 mm 4 mps 737 mmHg 66%

    Day after tomorrow, 12 December, Wednesday

    Time Temperature Precipitation Wind Pressure Humidity
    00:00 +5°C° 0 mm 4 mps 737 mmHg 67%
    01:00 +5°C° 0 mm 3 mps 737 mmHg 68%
    02:00 +4°C° 0 mm 3 mps 737 mmHg 68%
    03:00 +4°C° 0 mm 3 mps 737 mmHg 68%
    04:00 +4°C° 0 mm 3 mps 737 mmHg 67%
    05:00 +4°C° 0 mm 3 mps 737 mmHg 66%
    06:00 +4°C° 0 mm 3 mps 737 mmHg 64%
    07:00 +5°C° 0 mm 2 mps 738 mmHg 62%
    08:00 +6°C° 0 mm 2 mps 738 mmHg 57%
    09:00 +7°C° 0 mm 2 mps 738 mmHg 52%
    10:00 +10°C° 0 mm 1 mps 738 mmHg 46%
    11:00 +10°C° 0 mm 1 mps 738 mmHg 43%
    12:00 +10°C° 0 mm 2 mps 738 mmHg 40%
    13:00 +10°C° 0 mm 2 mps 738 mmHg 37%
    14:00 +10°C° 0 mm 2 mps 737 mmHg 40%
    15:00 +9°C° 0 mm 3 mps 737 mmHg 43%
    16:00 +9°C° 0 mm 3 mps 737 mmHg 46%
    17:00 +8°C° 0 mm 4 mps 736 mmHg 51%
    18:00 +7°C° 0 mm 4 mps 736 mmHg 55%
    19:00 +7°C° 0 mm 4 mps 736 mmHg 59%
    20:00 +7°C° 0.2 mm 5 mps 736 mmHg 66%
    21:00 +7°C° 0.2 mm 6 mps 736 mmHg 73%
    22:00 +7°C° 0.2 mm 6 mps 736 mmHg 81%
    23:00 +7°C° 0.7 mm 6 mps 735 mmHg 82%

    13 December, Thursday

    Time Temperature Precipitation Wind Pressure Humidity
    00:00 +7°C° 0.7 mm 6 mps 735 mmHg 84%
    01:00 +7°C° 0.7 mm 6 mps 734 mmHg 86%
    02:00 +7°C° 0.3 mm 6 mps 734 mmHg 87%
    03:00 +7°C° 0.3 mm 6 mps 733 mmHg 87%
    04:00 +7°C° 0.3 mm 5 mps 733 mmHg 88%
    05:00 +7°C° 0.1 mm 5 mps 733 mmHg 88%
    06:00 +7°C° 0.1 mm 4 mps 733 mmHg 88%
    07:00 +7°C° 0.1 mm 4 mps 733 mmHg 88%
    08:00 +9°C° 0.1 mm 3 mps 733 mmHg 83%
    09:00 +10°C° 0.1 mm 3 mps 733 mmHg 77%
    10:00 +11°C° 0.1 mm 3 mps 733 mmHg 71%
    11:00 +12°C° 0 mm 3 mps 733 mmHg 66%
    12:00 +13°C° 0 mm 3 mps 733 mmHg 62%
    13:00 +14°C° 0 mm 3 mps 733 mmHg 58%
    14:00 +14°C° 0.1 mm 2 mps 733 mmHg 60%
    15:00 +14°C° 0.1 mm 2 mps 733 mmHg 63%
    16:00 +13°C° 0.1 mm 1 mps 733 mmHg 66%
    17:00 +13°C° 0 mm 1 mps 733 mmHg 69%
    18:00 +12°C° 0 mm 1 mps 733 mmHg 71%
    19:00 +12°C° 0 mm 2 mps 733 mmHg 74%
    20:00 +10°C° 0 mm 2 mps 733 mmHg 74%
    21:00 +10°C° 0 mm 2 mps 734 mmHg 75%
    22:00 +11°C° 0 mm 1 mps 734 mmHg 76%
    23:00 +11°C° 0 mm 1 mps 734 mmHg 77%

    14 December, Friday

    Time Temperature Precipitation Wind Pressure Humidity
    00:00 +11°C° 0 mm 1 mps 734 mmHg 78%
    01:00 +10°C° 0 mm 1 mps 734 mmHg 79%
    02:00 +10°C° 0 mm 1 mps 734 mmHg 79%
    03:00 +10°C° 0 mm 1 mps 734 mmHg 80%
    04:00 +10°C° 0 mm 1 mps 734 mmHg 81%
    05:00 +9°C° 0 mm 2 mps 734 mmHg 81%
    06:00 +9°C° 0 mm 2 mps 734 mmHg 81%
    07:00 +9°C° 0 mm 2 mps 734 mmHg 82%
    08:00 +10°C° 0 mm 3 mps 734 mmHg 79%
    09:00 +11°C° 0 mm 3 mps 735 mmHg 76%
    10:00 +13°C° 0 mm 3 mps 735 mmHg 73%
    11:00 +13°C° 0 mm 4 mps 735 mmHg 70%
    12:00 +14°C° 0 mm 4 mps 735 mmHg 67%
    13:00 +15°C° 0 mm 4 mps 735 mmHg 65%
    14:00 +14°C° 0 mm 4 mps 735 mmHg 69%
    15:00 +14°C° 0 mm 3 mps 735 mmHg 73%
    16:00 +13°C° 0 mm 3 mps 735 mmHg 76%
    17:00 +13°C° 0 mm 3 mps 735 mmHg 80%
    18:00 +12°C° 0 mm 3 mps 736 mmHg 83%
    19:00 +11°C° 0 mm 3 mps 736 mmHg 86%
    20:00 +11°C° 0 mm 3 mps 736 mmHg 87%
    21:00 +11°C° 0 mm 3 mps 737 mmHg 87%
    22:00 +11°C° 0 mm 3 mps 737 mmHg 87%
    23:00 +11°C° 0.1 mm 3 mps 737 mmHg 88%

    15 December, Saturday

    Time Temperature Precipitation Wind Pressure Humidity
    00:00 +12°C° 0.1 mm 2 mps 737 mmHg 88%
    01:00 +10°C° 0.1 mm 2 mps 737 mmHg 88%
    02:00 +10°C° 0.2 mm 2 mps 737 mmHg 89%
    03:00 +10°C° 0.2 mm 2 mps 737 mmHg 89%
    04:00 +10°C° 0.2 mm 2 mps 737 mmHg 90%
    05:00 +10°C° 0.2 mm 2 mps 738 mmHg 89%
    06:00 +10°C° 0.2 mm 2 mps 738 mmHg 89%
    07:00 +10°C° 0.2 mm 2 mps 738 mmHg 88%
    08:00 +12°C° 0.1 mm 2 mps 739 mmHg 86%
    09:00 +12°C° 0.1 mm 2 mps 739 mmHg 84%
    10:00 +13°C° 0.1 mm 2 mps 740 mmHg 81%
    11:00 +13°C° 0.1 mm 3 mps 740 mmHg 79%
    12:00 +13°C° 0.1 mm 3 mps 740 mmHg 77%
    13:00 +14°C° 0.1 mm 3 mps 740 mmHg 74%
    14:00 +14°C° 0.2 mm 3 mps 740 mmHg 76%
    15:00 +13°C° 0.2 mm 3 mps 740 mmHg 79%
    16:00 +13°C° 0.2 mm 3 mps 740 mmHg 81%
    17:00 +12°C° 0.2 mm 3 mps 740 mmHg 83%
    18:00 +12°C° 0.2 mm 3 mps 740 mmHg 85%
    19:00 +11°C° 0.2 mm 3 mps 740 mmHg 87%
    20:00 +11°C° 0 mm 3 mps 740 mmHg 88%
    21:00 +11°C° 0 mm 3 mps 741 mmHg 89%
    22:00 +10°C° 0 mm 3 mps 741 mmHg 90%
    23:00 +10°C° 0.1 mm 4 mps 741 mmHg 90%
    Show more